Location: ???????
(55.4362°N, 38.1183°E)
Time: 19:45:35
(UTC+00:00)

M-CUBED/EXP-1 PRIME - Pass Details

Date: 10 December 2021
Orbit: 426 x 650 km, 101.7° (Epoch: 26 January)

Event Time Altitude Azimuth Distance (km) Brightness Sun altitude
Rises 16:41:02 0° 214° (SW) 2,864 ? -30.1°
Reaches altitude 10° 16:44:26 10° 244° (WSW) 2,007 ? -30.6°
Maximum altitude 16:46:20 13° 270° (W) 1,860 ? -30.8°
Drops below altitude 10° 16:48:16 10° 296° (WNW) 2,048 ? -31.1°
Sets 16:51:49 0° 325° (NW) 2,984 ? -31.6°
